^^
Saratoga-Weather Station Historical Data
Daily Summary for July 04, 2022 Units:  Metric    English   Both
Daily Weekly Monthly Yearly Custom
  High: Low: Average:
Temperature: 25.8 °C 13.6 °C 20.5 °C
Dew Point: 13.2 °C 10.7 °C 11.6 °C
Humidity: 84% 40% 59%
Wind Speed: 16.3km/h 0km/h 3.6km/h
Wind Gust: 19.3km/h - -
Wind- - WSW
Pressure: 1019.6 hPa 1016.9 hPa -
Precipitation: 0.0 mm    
Historical Graphs
 
 
Tabular Data for July 04, 2022
Time Temperature Dew Point Pressure Wind Wind Speed Wind Gust Humidity Rainfall Rate (Hourly) solar
00:03 18.3 °C 11.8 °C 1018.3 hPa WNW 1.4 km/h 9.7 km/h 66% 0.0 mm 0 W/m2
00:08 18.4 °C 11.9 °C 1018.3 hPa West 1.4 km/h 9.7 km/h 66% 0.0 mm 0 W/m2
00:13 18.4 °C 11.7 °C 1018.3 hPa West 3.2 km/h 9.7 km/h 65% 0.0 mm 0 W/m2
00:18 18.3 °C 11.6 °C 1018.3 hPa West 3.2 km/h 4.8 km/h 65% 0.0 mm 0 W/m2
00:23 18.2 °C 11.7 °C 1018.3 hPa West 3.2 km/h 9.7 km/h 66% 0.0 mm 0 W/m2
00:28 18.1 °C 11.6 °C 1018.6 hPa West 4.7 km/h 6.4 km/h 66% 0.0 mm 0 W/m2
00:33 17.9 °C 11.5 °C 1018.6 hPa West 3.2 km/h 6.4 km/h 66% 0.0 mm 0 W/m2
00:38 17.8 °C 11.4 °C 1018.6 hPa West 4.7 km/h 4.8 km/h 66% 0.0 mm 0 W/m2
00:43 17.8 °C 11.4 °C 1018.6 hPa West 4.7 km/h 6.4 km/h 66% 0.0 mm 0 W/m2
00:48 17.8 °C 11.4 °C 1018.6 hPa West 4.7 km/h 4.8 km/h 66% 0.0 mm 0 W/m2
00:53 17.8 °C 11.4 °C 1018.6 hPa WSW 4.7 km/h 8 km/h 66% 0.0 mm 0 W/m2
00:58 17.8 °C 11.4 °C 1018.6 hPa West 3.2 km/h 4.8 km/h 66% 0.0 mm 0 W/m2
01:03 17.8 °C 11.4 °C 1018.6 hPa West 3.2 km/h 6.4 km/h 66% 0.0 mm 0 W/m2
01:08 17.7 °C 11.5 °C 1018.6 hPa West 3.2 km/h 4.8 km/h 67% 0.0 mm 0 W/m2
01:13 17.5 °C 11.3 °C 1018.6 hPa WSW 3.2 km/h 4.8 km/h 67% 0.0 mm 0 W/m2
01:18 17.3 °C 11.3 °C 1018.6 hPa West 4.7 km/h 6.4 km/h 68% 0.0 mm 0 W/m2
01:23 17.2 °C 11.2 °C 1018.6 hPa West 6.4 km/h 6.4 km/h 68% 0.0 mm 0 W/m2
01:28 17.1 °C 11.4 °C 1018.6 hPa WSW 3.2 km/h 6.4 km/h 69% 0.0 mm 0 W/m2
01:33 16.9 °C 11.2 °C 1018.6 hPa West 6.4 km/h 8 km/h 69% 0.0 mm 0 W/m2
01:38 16.9 °C 11.2 °C 1018.6 hPa WSW 6.4 km/h 11.3 km/h 69% 0.0 mm 0 W/m2
01:43 16.9 °C 11.2 °C 1018.6 hPa WSW 4.7 km/h 8 km/h 69% 0.0 mm 0 W/m2
01:48 16.9 °C 11.2 °C 1018.6 hPa WSW 4.7 km/h 8 km/h 69% 0.0 mm 0 W/m2
01:53 16.9 °C 11.2 °C 1018.6 hPa West 6.4 km/h 8 km/h 69% 0.0 mm 0 W/m2
01:58 16.8 °C 11.1 °C 1018.6 hPa West 4.7 km/h 11.3 km/h 69% 0.0 mm 0 W/m2
02:03 16.8 °C 11.1 °C 1018.6 hPa WSW 3.2 km/h 12.9 km/h 69% 0.0 mm 0 W/m2
02:08 16.7 °C 11 °C 1018.6 hPa WSW 4.7 km/h 8 km/h 69% 0.0 mm 0 W/m2
02:13 16.7 °C 11 °C 1018.6 hPa WSW 4.7 km/h 8 km/h 69% 0.0 mm 0 W/m2
02:18 16.6 °C 11.1 °C 1018.6 hPa WSW 6.4 km/h 6.4 km/h 70% 0.0 mm 0 W/m2
02:23 16.6 °C 11.1 °C 1018.6 hPa West 3.2 km/h 6.4 km/h 70% 0.0 mm 0 W/m2
02:28 16.5 °C 11 °C 1018.6 hPa West 4.7 km/h 6.4 km/h 70% 0.0 mm 0 W/m2
02:33 16.4 °C 10.9 °C 1018.6 hPa West 1.4 km/h 3.2 km/h 70% 0.0 mm 0 W/m2
02:38 16.3 °C 11 °C 1018.6 hPa West 3.2 km/h 4.8 km/h 71% 0.0 mm 0 W/m2
02:43 16.2 °C 10.9 °C 1018.6 hPa WSW 3.2 km/h 4.8 km/h 71% 0.0 mm 0 W/m2
02:48 16.1 °C 11.1 °C 1018.6 hPa West 1.4 km/h 4.8 km/h 72% 0.0 mm 0 W/m2
02:53 15.9 °C 10.9 °C 1018.6 hPa WSW 3.2 km/h 4.8 km/h 72% 0.0 mm 0 W/m2
02:58 15.9 °C 10.9 °C 1018.6 hPa WNW 1.4 km/h 3.2 km/h 72% 0.0 mm 0 W/m2
03:03 15.9 °C 11.1 °C 1019.0 hPa West 1.4 km/h 3.2 km/h 73% 0.0 mm 0 W/m2
03:08 15.8 °C 11 °C 1019.0 hPa West 1.4 km/h 3.2 km/h 73% 0.0 mm 0 W/m2
03:13 15.8 °C 11 °C 1019.0 hPa WSW 1.4 km/h 3.2 km/h 73% 0.0 mm 0 W/m2
03:18 15.7 °C 10.9 °C 1019.0 hPa WSW 1.4 km/h 1.6 km/h 73% 0.0 mm 0 W/m2
03:23 15.5 °C 10.9 °C 1019.0 hPa WSW 1.4 km/h 3.2 km/h 74% 0.0 mm 0 W/m2
03:28 15.4 °C 10.8 °C 1019.0 hPa Calm     74% 0.0 mm 0 W/m2
03:33 15.3 °C 10.9 °C 1019.0 hPa Calm     75% 0.0 mm 0 W/m2
03:38 15.1 °C 10.9 °C 1019.0 hPa Calm     76% 0.0 mm 0 W/m2
03:44 14.9 °C 10.7 °C 1019.0 hPa Calm     76% 0.0 mm 0 W/m2
03:49 14.8 °C 10.8 °C 1019.0 hPa Calm     77% 0.0 mm 0 W/m2
03:54 14.7 °C 10.7 °C 1019.0 hPa Calm     77% 0.0 mm 0 W/m2
03:59 14.6 °C 10.8 °C 1019.0 hPa WSW 1.6 km/h 1.6 km/h 78% 0.0 mm 0 W/m2
04:04 14.5 °C 10.7 °C 1019.0 hPa WSW 1.4 km/h 1.6 km/h 78% 0.0 mm 0 W/m2
04:09 14.4 °C 10.8 °C 1019.0 hPa WSW 1.4 km/h 1.6 km/h 79% 0.0 mm 0 W/m2
04:14 14.3 °C 10.9 °C 1019.0 hPa WSW 1.4 km/h 3.2 km/h 80% 0.0 mm 0 W/m2
04:19 14.3 °C 10.9 °C 1019.0 hPa WSW 1.4 km/h 1.6 km/h 80% 0.0 mm 0 W/m2
04:24 14.3 °C 10.9 °C 1019.0 hPa WSW 1.4 km/h 1.6 km/h 80% 0.0 mm 0 W/m2
04:29 14.3 °C 10.9 °C 1019.0 hPa Calm   4.8 km/h 80% 0.0 mm 0 W/m2
04:34 14.3 °C 10.9 °C 1019.0 hPa Calm   3.2 km/h 80% 0.0 mm 0 W/m2
04:39 14.3 °C 10.9 °C 1019.0 hPa Calm     80% 0.0 mm 0 W/m2
04:44 14.2 °C 11 °C 1019.0 hPa Calm     81% 0.0 mm 0 W/m2
04:49 14.1 °C 10.9 °C 1019.0 hPa Calm   3.2 km/h 81% 0.0 mm 0 W/m2
04:54 14 °C 10.8 °C 1019.0 hPa Calm     81% 0.0 mm 0 W/m2
04:59 13.9 °C 10.9 °C 1019.0 hPa Calm   3.2 km/h 82% 0.0 mm 0 W/m2
05:04 13.9 °C 10.9 °C 1019.0 hPa WNW 1.4 km/h 3.2 km/h 82% 0.0 mm 0 W/m2
05:09 14 °C 11 °C 1019.0 hPa WSW 1.4 km/h 3.2 km/h 82% 0.0 mm 0 W/m2
05:14 14.1 °C 10.9 °C 1019.0 hPa NW 1.4 km/h 3.2 km/h 81% 0.0 mm 0 W/m2
05:19 14.2 °C 11 °C 1019.0 hPa Calm     81% 0.0 mm 0 W/m2
05:24 14.2 °C 11 °C 1019.0 hPa Calm   1.6 km/h 81% 0.0 mm 0 W/m2
05:29 14.2 °C 11 °C 1019.0 hPa West 3.2 km/h 3.2 km/h 81% 0.0 mm 0 W/m2
05:34 14.2 °C 11 °C 1019.3 hPa Calm   1.6 km/h 81% 0.0 mm 0 W/m2
05:39 14.2 °C 11 °C 1019.3 hPa Calm   1.6 km/h 81% 0.0 mm 5 W/m2
05:44 14.1 °C 10.9 °C 1019.3 hPa Calm     81% 0.0 mm 5 W/m2
05:49 14 °C 10.8 °C 1019.3 hPa Calm   1.6 km/h 81% 0.0 mm 7 W/m2
05:54 13.9 °C 10.9 °C 1019.3 hPa Calm     82% 0.0 mm 9 W/m2
05:59 13.8 °C 10.8 °C 1019.3 hPa Calm   3.2 km/h 82% 0.0 mm 11 W/m2
06:04 13.8 °C 10.8 °C 1019.3 hPa Calm   1.6 km/h 82% 0.0 mm 12 W/m2
06:09 13.7 °C 10.9 °C 1019.3 hPa Calm     83% 0.0 mm 14 W/m2
06:14 13.7 °C 10.9 °C 1019.3 hPa Calm     83% 0.0 mm 16 W/m2
06:19 13.6 °C 10.8 °C 1019.3 hPa Calm     83% 0.0 mm 18 W/m2
06:24 13.6 °C 10.8 °C 1019.3 hPa Calm     83% 0.0 mm 19 W/m2
06:29 13.6 °C 10.8 °C 1019.3 hPa Calm     83% 0.0 mm 21 W/m2
06:34 13.6 °C 10.9 °C 1019.3 hPa Calm     84% 0.0 mm 21 W/m2
06:39 13.6 °C 10.9 °C 1019.6 hPa Calm     84% 0.0 mm 23 W/m2
06:44 13.6 °C 10.8 °C 1019.6 hPa Calm     83% 0.0 mm 25 W/m2
06:49 13.6 °C 10.8 °C 1019.6 hPa Calm     83% 0.0 mm 25 W/m2
06:54 13.7 °C 11 °C 1019.6 hPa Calm     84% 0.0 mm 26 W/m2
06:59 13.8 °C 11.1 °C 1019.6 hPa Calm     84% 0.0 mm 26 W/m2
07:04 13.9 °C 11.2 °C 1019.6 hPa Calm     84% 0.0 mm 28 W/m2
07:09 13.9 °C 11.1 °C 1019.6 hPa Calm     83% 0.0 mm 30 W/m2
07:14 14.1 °C 11.3 °C 1019.6 hPa Calm     83% 0.0 mm 30 W/m2
07:19 14.3 °C 11.5 °C 1019.6 hPa Calm     83% 0.0 mm 33 W/m2
07:24 14.6 °C 11.7 °C 1019.6 hPa Calm     83% 0.0 mm 160 W/m2
07:29 15.1 °C 11.7 °C 1019.6 hPa Calm     80% 0.0 mm 174 W/m2
07:34 15.6 °C 12 °C 1019.6 hPa Calm   3.2 km/h 79% 0.0 mm 192 W/m2
07:39 16.3 °C 12.1 °C 1019.6 hPa Calm   3.2 km/h 76% 0.0 mm 207 W/m2
07:44 16.8 °C 12.1 °C 1019.6 hPa Calm   3.2 km/h 74% 0.0 mm 223 W/m2
07:49 17.4 °C 12.3 °C 1019.6 hPa Calm     72% 0.0 mm 236 W/m2
07:54 17.7 °C 12.4 °C 1019.6 hPa Calm   1.6 km/h 71% 0.0 mm 250 W/m2
07:59 18.2 °C 12.6 °C 1019.6 hPa Calm   1.6 km/h 70% 0.0 mm 262 W/m2
08:04 18.6 °C 12.6 °C 1019.6 hPa ENE 3.2 km/h 3.2 km/h 68% 0.0 mm 274 W/m2
08:09 19 °C 12.5 °C 1019.6 hPa ENE 1.4 km/h 3.2 km/h 66% 0.0 mm 288 W/m2
08:14 19.2 °C 12.7 °C 1019.6 hPa ENE 3.2 km/h 4.8 km/h 66% 0.0 mm 299 W/m2
08:19 19.1 °C 12.6 °C 1019.3 hPa ENE 1.4 km/h 4.8 km/h 66% 0.0 mm 313 W/m2
08:24 19.1 °C 12.8 °C 1019.6 hPa Calm   3.2 km/h 67% 0.0 mm 327 W/m2
08:29 19.1 °C 12.6 °C 1019.6 hPa ENE 3.2 km/h 6.4 km/h 66% 0.0 mm 120 W/m2
08:34 19.1 °C 12.6 °C 1019.6 hPa Calm   6.4 km/h 66% 0.0 mm 128 W/m2
08:39 19 °C 12.5 °C 1019.3 hPa Calm   4.8 km/h 66% 0.0 mm 58 W/m2
08:44 18.9 °C 12.4 °C 1019.6 hPa Calm   1.6 km/h 66% 0.0 mm 47 W/m2
08:49 18.9 °C 12.2 °C 1019.6 hPa NNW 1.4 km/h 3.2 km/h 65% 0.0 mm 47 W/m2
08:54 19.2 °C 12.5 °C 1019.6 hPa NE 1.4 km/h 6.4 km/h 65% 0.0 mm 47 W/m2
08:59 19.4 °C 12.7 °C 1019.6 hPa NE 1.4 km/h 3.2 km/h 65% 0.0 mm 44 W/m2
09:04 19.4 °C 12.9 °C 1019.6 hPa NNW 1.4 km/h 4.8 km/h 66% 0.0 mm 44 W/m2
09:09 19.4 °C 12.4 °C 1019.6 hPa ENE 1.4 km/h 4.8 km/h 64% 0.0 mm 44 W/m2
09:14 19.5 °C 12.7 °C 1019.6 hPa Calm   3.2 km/h 65% 0.0 mm 44 W/m2
09:19 19.4 °C 12.4 °C 1019.6 hPa Calm   3.2 km/h 64% 0.0 mm 44 W/m2
09:24 19.5 °C 13.2 °C 1019.6 hPa NE 1.4 km/h 3.2 km/h 67% 0.0 mm 44 W/m2
09:29 19.8 °C 12.6 °C 1019.6 hPa ESE 3.2 km/h 6.4 km/h 63% 0.0 mm 44 W/m2
09:34 19.9 °C 12.4 °C 1019.6 hPa ENE 3.2 km/h 3.2 km/h 62% 0.0 mm 44 W/m2
09:39 20.2 °C 12.7 °C 1019.6 hPa East 1.4 km/h 6.4 km/h 62% 0.0 mm 44 W/m2
09:44 20.5 °C 12.2 °C 1019.6 hPa Calm   4.8 km/h 59% 0.0 mm 46 W/m2
09:49 20.7 °C 12.4 °C 1019.6 hPa ENE 6.4 km/h 6.4 km/h 59% 0.0 mm 47 W/m2
09:54 20.6 °C 12.3 °C 1019.6 hPa East 3.2 km/h 4.8 km/h 59% 0.0 mm 56 W/m2
09:59 20.8 °C 12.5 °C 1019.3 hPa Calm   1.6 km/h 59% 0.0 mm 221 W/m2
10:04 21 °C 12.4 °C 1019.3 hPa East 6.4 km/h 9.7 km/h 58% 0.0 mm 492 W/m2
10:09 21.2 °C 12.3 °C 1019.3 hPa ESE 1.4 km/h 3.2 km/h 57% 0.0 mm 605 W/m2
10:14 21.2 °C 12.3 °C 1019.3 hPa South 1.4 km/h 9.7 km/h 57% 0.0 mm 58 W/m2
10:19 21.3 °C 11.9 °C 1019.3 hPa NE 1.4 km/h 6.4 km/h 55% 0.0 mm 134 W/m2
10:24 21.3 °C 12.2 °C 1019.3 hPa East 1.4 km/h 8 km/h 56% 0.0 mm 664 W/m2
10:29 21.5 °C 12.1 °C 1019.3 hPa SE 1.4 km/h 3.2 km/h 55% 0.0 mm 610 W/m2
10:34 21.8 °C 12.4 °C 1019.3 hPa ESE 4.7 km/h 6.4 km/h 55% 0.0 mm 650 W/m2
10:40 21.9 °C 12.2 °C 1019.3 hPa Calm   3.2 km/h 54% 0.0 mm 663 W/m2
10:45 22 °C 12.3 °C 1019.0 hPa ENE 4.7 km/h 11.3 km/h 54% 0.0 mm 689 W/m2
10:50 21.9 °C 12.5 °C 1019.0 hPa ESE 3.2 km/h 9.7 km/h 55% 0.0 mm 696 W/m2
10:55 22 °C 12 °C 1019.3 hPa SSE 1.4 km/h 6.4 km/h 53% 0.0 mm 715 W/m2
11:00 22.1 °C 12.1 °C 1019.0 hPa South 1.4 km/h 9.7 km/h 53% 0.0 mm 726 W/m2
11:05 22.3 °C 12.3 °C 1019.0 hPa ESE 4.7 km/h 6.4 km/h 53% 0.0 mm 744 W/m2
11:10 22.3 °C 12.3 °C 1019.0 hPa NNE 4.7 km/h 4.8 km/h 53% 0.0 mm 749 W/m2
11:15 22.3 °C 12.3 °C 1019.0 hPa SE 3.2 km/h 9.7 km/h 53% 0.0 mm 789 W/m2
11:20 22.3 °C 12.3 °C 1019.0 hPa NNW 6.4 km/h 9.7 km/h 53% 0.0 mm 937 W/m2
11:25 22.3 °C 12 °C 1019.3 hPa NNE 3.2 km/h 6.4 km/h 52% 0.0 mm 958 W/m2
11:30 22.2 °C 12.2 °C 1019.0 hPa West 3.2 km/h 6.4 km/h 53% 0.0 mm 204 W/m2
11:35 21.9 °C 11.9 °C 1019.0 hPa WNW 6.4 km/h 11.3 km/h 53% 0.0 mm 206 W/m2
11:40 21.6 °C 12.2 °C 1019.0 hPa NW 4.7 km/h 4.8 km/h 55% 0.0 mm 190 W/m2
11:45 21.7 °C 11.7 °C 1019.0 hPa West 4.7 km/h 8 km/h 53% 0.0 mm 849 W/m2
11:50 22.1 °C 12.1 °C 1019.0 hPa WNW 4.7 km/h 6.4 km/h 53% 0.0 mm 881 W/m2
11:55 22.4 °C 12.1 °C 1019.0 hPa NW 1.4 km/h 8 km/h 52% 0.0 mm 821 W/m2
12:00 22.4 °C 11.8 °C 1019.0 hPa West 3.2 km/h 8 km/h 51% 0.0 mm 146 W/m2
12:05 22.1 °C 12.4 °C 1019.0 hPa NW 4.7 km/h 9.7 km/h 54% 0.0 mm 902 W/m2
12:10 22.3 °C 11.7 °C 1019.0 hPa WNW 6.4 km/h 12.9 km/h 51% 0.0 mm 911 W/m2
12:15 22.7 °C 12.3 °C 1019.0 hPa North 4.7 km/h 8 km/h 52% 0.0 mm 911 W/m2
12:20 22.8 °C 12.1 °C 1019.0 hPa NW 3.2 km/h 6.4 km/h 51% 0.0 mm 918 W/m2
12:25 22.9 °C 12.2 °C 1019.0 hPa West 4.7 km/h 9.7 km/h 51% 0.0 mm 923 W/m2
12:30 22.9 °C 11.9 °C 1019.0 hPa West 11.1 km/h 11.3 km/h 50% 0.0 mm 896 W/m2
12:35 23.1 °C 11.8 °C 1019.0 hPa West 3.2 km/h 17.7 km/h 49% 0.0 mm 905 W/m2
12:40 23 °C 11.7 °C 1019.0 hPa NE 1.4 km/h 4.8 km/h 49% 0.0 mm 918 W/m2
12:45 23.3 °C 12.3 °C 1019.0 hPa West 6.4 km/h 17.7 km/h 50% 0.0 mm 940 W/m2
12:50 23.4 °C 12.1 °C 1019.0 hPa WNW 4.7 km/h 11.3 km/h 49% 0.0 mm 930 W/m2
12:55 23.4 °C 12.1 °C 1019.0 hPa West 1.4 km/h 8 km/h 49% 0.0 mm 918 W/m2
13:00 23.4 °C 12.1 °C 1019.0 hPa WNW 1.4 km/h 4.8 km/h 49% 0.0 mm 951 W/m2
13:05 23.5 °C 11.9 °C 1019.0 hPa Calm   4.8 km/h 48% 0.0 mm 202 W/m2
13:10 23.5 °C 11.9 °C 1019.0 hPa WSW 3.2 km/h 8 km/h 48% 0.0 mm 213 W/m2
13:15 23.6 °C 11.9 °C 1019.0 hPa WNW 6.4 km/h 12.9 km/h 48% 0.0 mm 942 W/m2
13:20 23.5 °C 11.9 °C 1019.0 hPa NNW 6.4 km/h 16.1 km/h 48% 0.0 mm 1000 W/m2
13:25 23.7 °C 12 °C 1019.0 hPa WSW 6.4 km/h 6.4 km/h 48% 0.0 mm 274 W/m2
13:30 23.3 °C 11.7 °C 1019.0 hPa WNW 9.7 km/h 12.9 km/h 48% 0.0 mm 172 W/m2
13:35 23.2 °C 11.6 °C 1019.0 hPa West 3.2 km/h 12.9 km/h 48% 0.0 mm 933 W/m2
13:40 23.3 °C 11.7 °C 1018.6 hPa NW 3.2 km/h 12.9 km/h 48% 0.0 mm 935 W/m2
13:45 23.6 °C 11.9 °C 1018.6 hPa NNW 4.7 km/h 9.7 km/h 48% 0.0 mm 953 W/m2
13:50 23.8 °C 12.1 °C 1018.6 hPa West 16.3 km/h 19.3 km/h 48% 0.0 mm 935 W/m2
13:55 23.8 °C 11.8 °C 1018.6 hPa NW 4.7 km/h 14.5 km/h 47% 0.0 mm 930 W/m2
14:00 24.1 °C 11.8 °C 1018.6 hPa NW 9.7 km/h 19.3 km/h 46% 0.0 mm 937 W/m2
14:05 24.2 °C 11.8 °C 1018.6 hPa East 7.9 km/h 11.3 km/h 46% 0.0 mm 868 W/m2
14:10 24.3 °C 11.6 °C 1018.6 hPa NNW 1.4 km/h 6.4 km/h 45% 0.0 mm 921 W/m2
14:15 24.4 °C 11.7 °C 1018.6 hPa NW 4.7 km/h 14.5 km/h 45% 0.0 mm 925 W/m2
14:20 24.5 °C 11.8 °C 1018.3 hPa NNW 7.9 km/h 17.7 km/h 45% 0.0 mm 944 W/m2
14:25 24.6 °C 12.2 °C 1018.3 hPa WNW 7.9 km/h 8 km/h 46% 0.0 mm 784 W/m2
14:30 24.6 °C 11.5 °C 1018.3 hPa WSW 6.4 km/h 9.7 km/h 44% 0.0 mm 854 W/m2
14:35 24.6 °C 11.5 °C 1018.3 hPa WNW 6.4 km/h 14.5 km/h 44% 0.0 mm 888 W/m2
14:40 24.6 °C 11.5 °C 1018.3 hPa West 13 km/h 12.9 km/h 44% 0.0 mm 856 W/m2
14:45 24.6 °C 11.9 °C 1018.3 hPa WSW 3.2 km/h 14.5 km/h 45% 0.0 mm 854 W/m2
14:50 24.6 °C 10.8 °C 1018.3 hPa WSW 13 km/h 17.7 km/h 42% 0.0 mm 599 W/m2
14:55 24.4 °C 11 °C 1018.0 hPa NW 3.2 km/h 6.4 km/h 43% 0.0 mm 842 W/m2
15:00 24.5 °C 11.4 °C 1018.0 hPa NW 3.2 km/h 12.9 km/h 44% 0.0 mm 865 W/m2
15:05 24.6 °C 11.2 °C 1018.0 hPa SW 3.2 km/h 4.8 km/h 43% 0.0 mm 791 W/m2
15:10 24.7 °C 11.6 °C 1018.0 hPa NW 1.4 km/h 6.4 km/h 44% 0.0 mm 868 W/m2
15:15 24.8 °C 11.4 °C 1018.0 hPa West 4.7 km/h 8 km/h 43% 0.0 mm 904 W/m2
15:21 25.2 °C 11 °C 1018.0 hPa WSW 4.7 km/h 12.9 km/h 41% 0.0 mm 823 W/m2
15:26 25.3 °C 11.1 °C 1018.0 hPa WNW 3.2 km/h 19.3 km/h 41% 0.0 mm 835 W/m2
15:31 25.3 °C 11.1 °C 1018.0 hPa WSW 6.4 km/h 12.9 km/h 41% 0.0 mm 791 W/m2
15:36 25.3 °C 11.5 °C 1018.0 hPa West 6.4 km/h 14.5 km/h 42% 0.0 mm 842 W/m2
15:41 25.2 °C 11.4 °C 1017.6 hPa NNE 4.7 km/h 8 km/h 42% 0.0 mm 875 W/m2
15:46 25.4 °C 11.2 °C 1017.6 hPa WNW 11.1 km/h 11.3 km/h 41% 0.0 mm 817 W/m2
15:51 25.7 °C 11.8 °C 1017.6 hPa NNW 6.4 km/h 6.4 km/h 42% 0.0 mm 860 W/m2
15:56 25.7 °C 12.2 °C 1017.6 hPa SW 6.4 km/h 6.4 km/h 43% 0.0 mm 856 W/m2
16:01 25.7 °C 11.5 °C 1017.6 hPa NW 6.4 km/h 9.7 km/h 41% 0.0 mm 759 W/m2
16:06 25.7 °C 11.8 °C 1017.6 hPa West 9.7 km/h 14.5 km/h 42% 0.0 mm 738 W/m2
16:11 25.3 °C 11.1 °C 1017.6 hPa WSW 11.1 km/h 14.5 km/h 41% 0.0 mm 701 W/m2
16:16 25.1 °C 11.3 °C 1017.6 hPa WSW 4.7 km/h 8 km/h 42% 0.0 mm 744 W/m2
16:21 25.3 °C 11.5 °C 1017.6 hPa WSW 13 km/h 19.3 km/h 42% 0.0 mm 677 W/m2
16:26 25.3 °C 11.8 °C 1017.6 hPa NW 3.2 km/h 9.7 km/h 43% 0.0 mm 759 W/m2
16:31 25.4 °C 11.2 °C 1017.3 hPa WNW 1.4 km/h 16.1 km/h 41% 0.0 mm 587 W/m2
16:36 25.4 °C 11.9 °C 1017.3 hPa WSW 6.4 km/h 11.3 km/h 43% 0.0 mm 784 W/m2
16:41 25.6 °C 11.4 °C 1017.3 hPa WNW 4.7 km/h 14.5 km/h 41% 0.0 mm 752 W/m2
16:46 25.7 °C 11.5 °C 1017.3 hPa North 4.7 km/h 14.5 km/h 41% 0.0 mm 733 W/m2
16:51 25.7 °C 11.5 °C 1017.3 hPa SW 9.7 km/h 12.9 km/h 41% 0.0 mm 752 W/m2
16:56 25.8 °C 11.2 °C 1017.3 hPa West 6.4 km/h 14.5 km/h 40% 0.0 mm 677 W/m2
17:01 25.5 °C 11.6 °C 1017.3 hPa NW 4.7 km/h 12.9 km/h 42% 0.0 mm 322 W/m2
17:06 25.5 °C 11.6 °C 1017.3 hPa NNW 6.4 km/h 14.5 km/h 42% 0.0 mm 708 W/m2
17:11 25.8 °C 11.9 °C 1017.3 hPa WSW 13 km/h 17.7 km/h 42% 0.0 mm 663 W/m2
17:16 25.6 °C 12.1 °C 1016.9 hPa West 4.7 km/h 9.7 km/h 43% 0.0 mm 592 W/m2
17:21 25.4 °C 11.9 °C 1016.9 hPa West 6.4 km/h 17.7 km/h 43% 0.0 mm 503 W/m2
17:26 25.4 °C 11.9 °C 1016.9 hPa WNW 11.1 km/h 12.9 km/h 43% 0.0 mm 663 W/m2
17:31 25.4 °C 11.9 °C 1016.9 hPa NNW 4.7 km/h 12.9 km/h 43% 0.0 mm 578 W/m2
17:36 25.5 °C 12 °C 1016.9 hPa WNW 14.3 km/h 14.5 km/h 43% 0.0 mm 636 W/m2
17:41 25.4 °C 11.2 °C 1016.9 hPa WSW 7.9 km/h 12.9 km/h 41% 0.0 mm 489 W/m2
17:46 25.4 °C 11.6 °C 1016.9 hPa West 9.7 km/h 9.7 km/h 42% 0.0 mm 403 W/m2
17:51 25.4 °C 12.3 °C 1016.9 hPa West 3.2 km/h 14.5 km/h 44% 0.0 mm 552 W/m2
17:56 25.4 °C 12.3 °C 1016.9 hPa SSW 3.2 km/h 6.4 km/h 44% 0.0 mm 584 W/m2
18:01 25.4 °C 12.3 °C 1016.9 hPa WNW 6.4 km/h 11.3 km/h 44% 0.0 mm 563 W/m2
18:06 25.6 °C 12.4 °C 1016.9 hPa WSW 7.9 km/h 16.1 km/h 44% 0.0 mm 545 W/m2
18:11 25.7 °C 11.8 °C 1016.9 hPa WSW 3.2 km/h 11.3 km/h 42% 0.0 mm 534 W/m2
18:16 25.7 °C 11.8 °C 1016.9 hPa NW 6.4 km/h 16.1 km/h 42% 0.0 mm 497 W/m2
18:21 25.7 °C 11.5 °C 1016.9 hPa West 9.7 km/h 11.3 km/h 41% 0.0 mm 483 W/m2
18:26 25.6 °C 11.7 °C 1016.9 hPa West 6.4 km/h 16.1 km/h 42% 0.0 mm 403 W/m2
18:31 25.6 °C 11.7 °C 1016.9 hPa NW 1.4 km/h 9.7 km/h 42% 0.0 mm 434 W/m2
18:36 25.6 °C 11.7 °C 1016.9 hPa West 6.4 km/h 16.1 km/h 42% 0.0 mm 431 W/m2
18:41 25.6 °C 12.1 °C 1016.9 hPa WSW 3.2 km/h 6.4 km/h 43% 0.0 mm 399 W/m2
18:46 25.7 °C 12.2 °C 1016.9 hPa NW 3.2 km/h 16.1 km/h 43% 0.0 mm 367 W/m2
18:51 25.7 °C 11.5 °C 1016.9 hPa West 6.4 km/h 12.9 km/h 41% 0.0 mm 276 W/m2
18:56 25.6 °C 11.7 °C 1016.9 hPa WSW 14.3 km/h 16.1 km/h 42% 0.0 mm 69 W/m2
19:01 25.4 °C 11.9 °C 1016.9 hPa WNW 3.2 km/h 14.5 km/h 43% 0.0 mm 60 W/m2
19:06 25.3 °C 11.5 °C 1016.9 hPa NW 6.4 km/h 9.7 km/h 42% 0.0 mm 58 W/m2
19:11 25.3 °C 11.5 °C 1016.9 hPa West 4.7 km/h 12.9 km/h 42% 0.0 mm 58 W/m2
19:16 25.4 °C 11.2 °C 1016.9 hPa WNW 6.4 km/h 8 km/h 41% 0.0 mm 56 W/m2
19:21 25.4 °C 11.6 °C 1016.9 hPa WNW 3.2 km/h 4.8 km/h 42% 0.0 mm 54 W/m2
19:26 25.4 °C 11.6 °C 1016.9 hPa West 4.7 km/h 14.5 km/h 42% 0.0 mm 53 W/m2
19:31 25.3 °C 11.5 °C 1016.9 hPa West 9.7 km/h 12.9 km/h 42% 0.0 mm 51 W/m2
19:36 25.1 °C 10.9 °C 1016.9 hPa WSW 6.4 km/h 14.5 km/h 41% 0.0 mm 49 W/m2
19:41 24.8 °C 10.7 °C 1016.9 hPa WNW 6.4 km/h 11.3 km/h 41% 0.0 mm 47 W/m2
19:46 24.8 °C 11 °C 1016.9 hPa West 1.4 km/h 14.5 km/h 42% 0.0 mm 47 W/m2
19:51 24.8 °C 11 °C 1017.3 hPa Calm   9.7 km/h 42% 0.0 mm 47 W/m2
19:56 24.8 °C 11.4 °C 1017.3 hPa West 6.4 km/h 12.9 km/h 43% 0.0 mm 46 W/m2
20:01 24.7 °C 11.3 °C 1017.3 hPa WNW 1.4 km/h 11.3 km/h 43% 0.0 mm 123 W/m2
20:06 24.6 °C 11.2 °C 1017.3 hPa WNW 4.7 km/h 8 km/h 43% 0.0 mm 42 W/m2
20:11 24.5 °C 10.7 °C 1016.9 hPa WNW 6.4 km/h 11.3 km/h 42% 0.0 mm 40 W/m2
20:16 24.4 °C 11 °C 1017.3 hPa WNW 6.4 km/h 9.7 km/h 43% 0.0 mm 39 W/m2
20:21 24.3 °C 10.9 °C 1017.3 hPa NNW 1.4 km/h 11.3 km/h 43% 0.0 mm 37 W/m2
20:26 24.4 °C 11.4 °C 1017.3 hPa West 4.7 km/h 9.7 km/h 44% 0.0 mm 35 W/m2
20:31 24.2 °C 11.5 °C 1017.3 hPa WNW 3.2 km/h 4.8 km/h 45% 0.0 mm 33 W/m2
20:36 24.1 °C 11.4 °C 1017.3 hPa West 6.4 km/h 8 km/h 45% 0.0 mm 33 W/m2
20:41 23.8 °C 11.5 °C 1017.3 hPa West 3.2 km/h 6.4 km/h 46% 0.0 mm 32 W/m2
20:46 23.7 °C 11.4 °C 1017.3 hPa West 3.2 km/h 6.4 km/h 46% 0.0 mm 39 W/m2
20:51 23.6 °C 11.6 °C 1017.3 hPa West 1.4 km/h 4.8 km/h 47% 0.0 mm 58 W/m2
20:56 23.4 °C 11.4 °C 1017.6 hPa West 4.7 km/h 6.4 km/h 47% 0.0 mm 53 W/m2
21:01 23.3 °C 11.4 °C 1017.6 hPa WSW 4.7 km/h 6.4 km/h 47% 0.0 mm 44 W/m2
21:06 23.1 °C 11.5 °C 1017.6 hPa WSW 1.4 km/h 6.4 km/h 48% 0.0 mm 37 W/m2
21:11 22.9 °C 11.6 °C 1017.6 hPa West 3.2 km/h 6.4 km/h 49% 0.0 mm 30 W/m2
21:16 22.8 °C 11.5 °C 1017.6 hPa West 4.7 km/h 9.7 km/h 49% 0.0 mm 16 W/m2
21:21 22.6 °C 11.6 °C 1018.0 hPa West 4.7 km/h 4.8 km/h 50% 0.0 mm 11 W/m2
21:26 22.3 °C 11.7 °C 1018.0 hPa West 4.7 km/h 9.7 km/h 51% 0.0 mm 11 W/m2
21:31 22.2 °C 11.9 °C 1018.0 hPa West 6.4 km/h 9.7 km/h 52% 0.0 mm 7 W/m2
21:36 22 °C 11.7 °C 1018.0 hPa WNW 3.2 km/h 9.7 km/h 52% 0.0 mm 7 W/m2
21:41 21.9 °C 11.6 °C 1018.0 hPa West 4.7 km/h 6.4 km/h 52% 0.0 mm 5 W/m2
21:46 21.7 °C 11.7 °C 1018.0 hPa West 4.7 km/h 6.4 km/h 53% 0.0 mm 0 W/m2
21:51 21.6 °C 11.9 °C 1018.0 hPa West 4.7 km/h 11.3 km/h 54% 0.0 mm 0 W/m2
21:56 21.5 °C 11.8 °C 1018.3 hPa WSW 4.7 km/h 9.7 km/h 54% 0.0 mm 0 W/m2
22:01 21.3 °C 11.9 °C 1018.3 hPa West 4.7 km/h 6.4 km/h 55% 0.0 mm 0 W/m2
22:06 21.2 °C 11.8 °C 1018.3 hPa WSW 3.2 km/h 11.3 km/h 55% 0.0 mm 0 W/m2
22:11 21.1 °C 11.7 °C 1018.3 hPa West 3.2 km/h 6.4 km/h 55% 0.0 mm 0 W/m2
22:16 21 °C 11.6 °C 1018.3 hPa West 4.7 km/h 11.3 km/h 55% 0.0 mm 0 W/m2
22:21 20.9 °C 11.8 °C 1018.3 hPa WNW 4.7 km/h 9.7 km/h 56% 0.0 mm 0 W/m2
22:26 20.9 °C 11.8 °C 1018.3 hPa West 4.7 km/h 11.3 km/h 56% 0.0 mm 0 W/m2
22:31 20.8 °C 12 °C 1018.3 hPa West 6.4 km/h 9.7 km/h 57% 0.0 mm 0 W/m2
22:36 20.7 °C 11.9 °C 1018.6 hPa West 3.2 km/h 6.4 km/h 57% 0.0 mm 0 W/m2
22:41 20.6 °C 12 °C 1018.6 hPa West 1.4 km/h 9.7 km/h 58% 0.0 mm 0 W/m2
22:46 20.4 °C 11.9 °C 1018.6 hPa West 4.7 km/h 4.8 km/h 58% 0.0 mm 0 W/m2
22:51 20.3 °C 11.8 °C 1018.6 hPa WSW 3.2 km/h 9.7 km/h 58% 0.0 mm 0 W/m2
22:56 20.2 °C 11.9 °C 1018.6 hPa West 3.2 km/h 4.8 km/h 59% 0.0 mm 0 W/m2
23:01 20.2 °C 11.9 °C 1018.6 hPa West 3.2 km/h 4.8 km/h 59% 0.0 mm 0 W/m2
23:06 20.1 °C 11.8 °C 1018.6 hPa West 4.7 km/h 4.8 km/h 59% 0.0 mm 0 W/m2
23:11 19.9 °C 11.9 °C 1018.6 hPa West 3.2 km/h 3.2 km/h 60% 0.0 mm 0 W/m2
23:16 19.9 °C 11.9 °C 1019.0 hPa West 3.2 km/h 4.8 km/h 60% 0.0 mm 0 W/m2
23:21 19.8 °C 11.8 °C 1019.0 hPa West 3.2 km/h 3.2 km/h 60% 0.0 mm 0 W/m2
23:26 19.7 °C 11.7 °C 1019.0 hPa West 4.7 km/h 4.8 km/h 60% 0.0 mm 0 W/m2
23:32 19.6 °C 11.6 °C 1019.0 hPa WSW 1.4 km/h 6.4 km/h 60% 0.0 mm 0 W/m2
23:37 19.6 °C 11.6 °C 1019.0 hPa WSW 1.4 km/h 3.2 km/h 60% 0.0 mm 0 W/m2
23:42 19.6 °C 11.6 °C 1019.0 hPa West 3.2 km/h 3.2 km/h 60% 0.0 mm 0 W/m2
23:47 19.4 °C 11.4 °C 1019.0 hPa West 1.4 km/h 4.8 km/h 60% 0.0 mm 0 W/m2
23:52 19.3 °C 11.6 °C 1019.0 hPa West 3.2 km/h 4.8 km/h 61% 0.0 mm 0 W/m2
23:57 19.2 °C 11.5 °C 1019.0 hPa WSW 6.4 km/h 8 km/h 61% 0.0 mm 0 W/m2
Juneau County Weather
Compliments of Weather Underground - 4 mb